User: anonymous   Login
Location: Brno
(49.2000°N, 16.6330°E)
Time: 07:28:04
(UTC+02:00)
Language:

Cosmos 332 Rocket - Orbit

View from above orbital plane
View from above orbital plane
View from above satellite
View from above satellite

Ground track
Ground track

The orbit data is extracted from the following two-line orbital elements,

1  4370U 70028B   17179.24597367 +.00000065 +00000-0 +19943-4 0  9990
2  4370 074.0403 068.1335 0015859 339.5931 020.4599 14.59866662013119
Epoch (UTC): 28 June 2017 05:54:12
Eccentricity: 0.0015859
inclination: 74.0403°
perigee height: 682 km
apogee height: 705 km
right ascension of ascending node: 68.1335°
argument of perigee: 339.5931°
revolutions per day: 14.59866662
mean anomaly at epoch: 20.4599°
orbit number at epoch: 1311

The dashed part of the orbit path shows where the satellite is in the earth's shadow,  

DLR